This demonstration page uses our WeatherBlox Daily Observations layout. Learn more.

41.86663, -103.66717

Hourly Observations for August 4, 2020

Temp ( °F °C ) Dew Point ( °F °C ) Humidity (%) Winds ( mph kmh ) Pressure ( in mb ) Visibility ( mi km ) Precip ( " mm )
12:53 am 00:53 Clear 66 18.9 57 13.9 73 73 ESE 12 19 29.94 1014 10 16.0934 0 0
1:53 am 01:53 Clear 65 18.3 57 13.9 76 76 E 9 15 29.93 1014 10 16.0934 0 0
2:53 am 02:53 Clear 62 16.7 57 13.9 84 84 undefined N/A 29.92 1013 10 16.0934 0 0
3:53 am 03:53 Clear 61 16.1 57 13.9 87 87 ESE 10 17 29.91 1013 10 16.0934 0 0
4:53 am 04:53 Clear 61 16.1 56 13.3 84 84 SSE 8 13 29.89 1012 10 16.0934 0 0
5:53 am 05:53 Sunny 59 15 56 13.3 90 90 E 8 13 29.91 1013 10 16.0934 0 0
6:53 am 06:53 Sunny 60 15.6 57 13.9 90 90 E 9 15 29.92 1013 10 16.0934 0 0
7:53 am 07:53 Sunny 66 18.9 59 15 78 78 E 6 9 29.92 1013 10 16.0934 0 0
8:53 am 08:53 Sunny 70 21.1 60 15.6 71 71 ESE 5 7 29.92 1013 10 16.0934 0 0
9:53 am 09:53 Sunny 74 23.3 61 16.1 64 64 ESE 5 7 29.92 1013 10 16.0934 0 0
10:53 am 10:53 undefined 77 25 61 16.1 58 58 SSW 8 13 29.93 1014 10 16.0934 0 0
11:53 am 11:53 Sunny 82 27.8 62 16.7 51 51 VRB 6 9 29.92 1013 10 16.0934 0 0
12:53 pm 12:53 Sunny 84 28.9 61 16.1 46 46 SSE 6 9 29.92 1013 10 16.0934 0 0
1:53 pm 13:53 Sunny 86 30 60 15.6 42 42 E 8 13 29.91 1013 10 16.0934 0 0
2:53 pm 14:53 Sunny 88 31.1 52 11.1 29 29 ESE 10 17 29.91 1013 10 16.0934 0 0
3:53 pm 15:53 Sunny 89 31.7 49 9.4 25 25 SSW 7 11 29.9 1012 10 16.0934 0 0
4:53 pm 16:53 Sunny 90 32.2 50 10 25 25 E 8 13 29.88 1012 10 16.0934 0 0
5:53 pm 17:53 Sunny 88 31.1 54 12.2 31 31 E 6 9 29.87 1012 10 16.0934 0 0
6:53 pm 18:53 Sunny 83 28.3 59 15 44 44 E 7 11 29.88 1012 10 16.0934 0 0
7:53 pm 19:53 Sunny 80 26.7 59 15 49 49 E 6 9 29.88 1012 10 16.0934 0 0
8:53 pm 20:53 Clear 75 23.9 57 13.9 54 54 SE 6 9 29.9 1013 10 16.0934 0 0
9:53 pm 21:53 Mostly Clear 74 23.3 59 15 60 60 E 6 9 29.92 1013 10 16.0934 0 0
10:53 pm 22:53 Clear 73 22.8 61 16.1 66 66 SE 6 9 29.92 1013 10 16.0934 0 0
11:53 pm 23:53 Clear 69 20.6 62 16.7 78 78 ENE 6 9 29.92 1013 10 16.0934 0 0

Powered by AerisWeather